GXIBA-1

Last updated on Fri Sep 04 2026 00:02:05 GMT+0000 (Coordinated Universal Time)

1 67685U 98067YB 26246.08035307 .00057875 00000+0 45497-3 0 9991 2 67685 51.6228 258.4036 0008291 108.9867 251.2030 15.70881204 32492
UTC large
Height (km)
Speed (km/s)
/
Latitude / Longitude
Inclination (degrees)
Orbital Period (minutes)
Azimuth
Elevation
Range (km)
Doppler Factor

Next 0 passes for location: London (51.5072 / 0.1276)

No passes found over London.
GXIBA-1